When you browse on this site, cookies collect data to enhance your experience and personalize the content and advertising you see.
Visit our Privacy Policy to learn more. By continuing to use the site, you agree to this use of cookies and data.
  • In Latvia
  • List of Countries
  • For 7 days
  • Water Temperature
  • Satellite Maps
  • Weather Map
  • Weather Widgets
  • user-avatar
    Login

    Hourly Weather Frankfurt am Mein

    Today, 21 April, Sunday

    Time Temperature Precipitation Wind Pressure Humidity
    00:00 +12°C° 0 mm 2 mps 728 mmHg 70%
    01:00 +10°C° 0 mm 2 mps 728 mmHg 71%
    02:00 +10°C° 0 mm 2 mps 727 mmHg 72%
    03:00 +9°C° 0 mm 2 mps 727 mmHg 73%
    04:00 +8°C° 0 mm 2 mps 726 mmHg 74%
    05:00 +9°C° 0 mm 2 mps 726 mmHg 73%
    06:00 +9°C° 0 mm 2 mps 726 mmHg 71%
    07:00 +10°C° 0 mm 2 mps 726 mmHg 67%
    08:00 +14°C° 0 mm 2 mps 726 mmHg 61%
    09:00 +16°C° 0 mm 2 mps 726 mmHg 55%
    10:00 +18°C° 0 mm 2 mps 726 mmHg 49%
    11:00 +19°C° 0 mm 2 mps 725 mmHg 44%
    12:00 +20°C° 0 mm 2 mps 725 mmHg 40%
    13:00 +23°C° 0 mm 2 mps 725 mmHg 32%
    14:00 +23°C° 0 mm 2 mps 724 mmHg 32%
    15:00 +23°C° 0 mm 2 mps 724 mmHg 32%
    16:00 +23°C° 0 mm 2 mps 723 mmHg 32%
    17:00 +20°C° 0 mm 2 mps 723 mmHg 38%
    18:00 +18°C° 0 mm 2 mps 722 mmHg 44%
    19:00 +17°C° 0 mm 2 mps 722 mmHg 50%
    20:00 +15°C° 0 mm 2 mps 722 mmHg 54%
    21:00 +14°C° 0 mm 2 mps 721 mmHg 59%
    22:00 +12°C° 0 mm 2 mps 721 mmHg 63%
    23:00 +12°C° 0 mm 2 mps 721 mmHg 66%

    Tomorrow, 22 April, Monday

    Time Temperature Precipitation Wind Pressure Humidity
    00:00 +10°C° 0 mm 2 mps 721 mmHg 68%
    01:00 +9°C° 0 mm 2 mps 721 mmHg 70%
    02:00 +9°C° 0 mm 2 mps 720 mmHg 71%
    03:00 +9°C° 0 mm 1 mps 720 mmHg 72%
    04:00 +9°C° 0 mm 1 mps 720 mmHg 73%
    05:00 +8°C° 0 mm 2 mps 720 mmHg 71%
    06:00 +9°C° 0 mm 2 mps 719 mmHg 69%
    07:00 +9°C° 0 mm 2 mps 719 mmHg 68%
    08:00 +11°C° 0 mm 3 mps 719 mmHg 60%
    09:00 +14°C° 0 mm 3 mps 719 mmHg 53%
    10:00 +17°C° 0 mm 4 mps 719 mmHg 46%
    11:00 +18°C° 0 mm 4 mps 718 mmHg 42%
    12:00 +19°C° 0 mm 5 mps 718 mmHg 39%
    13:00 +20°C° 0 mm 5 mps 717 mmHg 36%
    14:00 +21°C° 0 mm 5 mps 717 mmHg 38%
    15:00 +21°C° 0 mm 5 mps 716 mmHg 39%
    16:00 +21°C° 0 mm 5 mps 716 mmHg 40%
    17:00 +19°C° 0 mm 5 mps 715 mmHg 45%
    18:00 +17°C° 0 mm 5 mps 715 mmHg 50%
    19:00 +15°C° 0 mm 5 mps 715 mmHg 55%
    20:00 +14°C° 0 mm 5 mps 714 mmHg 55%
    21:00 +13°C° 0 mm 5 mps 714 mmHg 54%
    22:00 +10°C° 0 mm 5 mps 714 mmHg 54%
    23:00 +11°C° 0 mm 4 mps 714 mmHg 57%

    Day after tomorrow, 23 April, Tuesday

    Time Temperature Precipitation Wind Pressure Humidity
    00:00 +10°C° 0 mm 4 mps 713 mmHg 59%
    01:00 +8°C° 0 mm 4 mps 713 mmHg 62%
    02:00 +7°C° 0 mm 4 mps 713 mmHg 63%
    03:00 +7°C° 0 mm 4 mps 712 mmHg 63%
    04:00 +7°C° 0 mm 4 mps 712 mmHg 64%
    05:00 +7°C° 0 mm 4 mps 711 mmHg 68%
    06:00 +7°C° 0 mm 4 mps 711 mmHg 71%
    07:00 +8°C° 0 mm 4 mps 711 mmHg 75%
    08:00 +10°C° 0 mm 5 mps 711 mmHg 71%
    09:00 +12°C° 0 mm 5 mps 711 mmHg 66%
    10:00 +14°C° 0 mm 5 mps 711 mmHg 62%
    11:00 +15°C° 0 mm 5 mps 711 mmHg 58%
    12:00 +17°C° 0 mm 5 mps 711 mmHg 55%
    13:00 +19°C° 0 mm 5 mps 711 mmHg 52%
    14:00 +19°C° 0 mm 5 mps 710 mmHg 52%
    15:00 +19°C° 0 mm 4 mps 710 mmHg 52%
    16:00 +19°C° 0 mm 4 mps 710 mmHg 53%
    17:00 +18°C° 0 mm 4 mps 710 mmHg 57%
    18:00 +17°C° 0 mm 3 mps 709 mmHg 62%
    19:00 +16°C° 0 mm 3 mps 709 mmHg 67%
    20:00 +15°C° 0 mm 2 mps 709 mmHg 72%
    21:00 +13°C° 0 mm 2 mps 710 mmHg 77%
    22:00 +12°C° 0 mm 2 mps 710 mmHg 82%
    23:00 +12°C° 0.2 mm 2 mps 710 mmHg 85%

    24 April, Wednesday

    Time Temperature Precipitation Wind Pressure Humidity
    00:00 +11°C° 0.2 mm 1 mps 710 mmHg 88%
    01:00 +9°C° 0.2 mm 0 mps 710 mmHg 90%
    02:00 +11°C° 0.4 mm 1 mps 711 mmHg 90%
    03:00 +11°C° 0.4 mm 1 mps 711 mmHg 90%
    04:00 +11°C° 0.4 mm 1 mps 711 mmHg 90%
    05:00 +12°C° 0 mm 1 mps 712 mmHg 89%
    06:00 +12°C° 0 mm 1 mps 712 mmHg 88%
    07:00 +13°C° 0 mm 2 mps 713 mmHg 87%
    08:00 +14°C° 0 mm 3 mps 713 mmHg 77%
    09:00 +17°C° 0 mm 4 mps 714 mmHg 68%
    10:00 +17°C° 0 mm 5 mps 715 mmHg 58%
    11:00 +20°C° 0 mm 4 mps 715 mmHg 53%
    12:00 +21°C° 0 mm 4 mps 715 mmHg 48%
    13:00 +22°C° 0 mm 4 mps 716 mmHg 44%
    14:00 +22°C° 0 mm 4 mps 715 mmHg 44%
    15:00 +22°C° 0 mm 3 mps 715 mmHg 45%
    16:00 +22°C° 0 mm 3 mps 715 mmHg 45%
    17:00 +21°C° 0 mm 3 mps 715 mmHg 51%
    18:00 +20°C° 0 mm 3 mps 714 mmHg 57%
    19:00 +18°C° 0 mm 3 mps 714 mmHg 63%
    20:00 +18°C° 0 mm 3 mps 714 mmHg 65%
    21:00 +17°C° 0 mm 3 mps 715 mmHg 66%
    22:00 +17°C° 0 mm 3 mps 715 mmHg 68%
    23:00 +16°C° 0 mm 3 mps 715 mmHg 71%

    25 April, Thursday

    Time Temperature Precipitation Wind Pressure Humidity
    00:00 +13°C° 0 mm 4 mps 715 mmHg 75%
    01:00 +12°C° 0 mm 4 mps 715 mmHg 78%
    02:00 +12°C° 0 mm 4 mps 715 mmHg 77%
    03:00 +12°C° 0 mm 3 mps 716 mmHg 77%
    04:00 +11°C° 0 mm 3 mps 716 mmHg 76%
    05:00 +11°C° 0 mm 3 mps 716 mmHg 76%
    06:00 +11°C° 0 mm 3 mps 717 mmHg 75%
    07:00 +11°C° 0 mm 3 mps 717 mmHg 75%
    08:00 +12°C° 0 mm 3 mps 717 mmHg 67%
    09:00 +14°C° 0 mm 4 mps 717 mmHg 58%
    10:00 +15°C° 0 mm 4 mps 718 mmHg 50%
    11:00 +17°C° 0 mm 4 mps 718 mmHg 46%
    12:00 +18°C° 0 mm 4 mps 718 mmHg 43%
    13:00 +20°C° 0 mm 5 mps 718 mmHg 39%
    14:00 +20°C° 0 mm 4 mps 718 mmHg 39%
    15:00 +20°C° 0 mm 3 mps 717 mmHg 40%
    16:00 +20°C° 0 mm 3 mps 717 mmHg 41%
    17:00 +19°C° 0.8 mm 2 mps 717 mmHg 53%
    18:00 +17°C° 0.8 mm 2 mps 717 mmHg 65%
    19:00 +15°C° 0.8 mm 2 mps 717 mmHg 77%
    20:00 +14°C° 0.6 mm 2 mps 717 mmHg 80%
    21:00 +14°C° 0.6 mm 2 mps 718 mmHg 82%
    22:00 +13°C° 0.6 mm 2 mps 718 mmHg 85%
    23:00 +11°C° 0.1 mm 3 mps 718 mmHg 86%

    26 April, Friday

    Time Temperature Precipitation Wind Pressure Humidity
    00:00 +10°C° 0.1 mm 3 mps 719 mmHg 86%
    01:00 +9°C° 0.1 mm 3 mps 719 mmHg 87%
    02:00 +9°C° 0.1 mm 3 mps 719 mmHg 87%
    03:00 +8°C° 0.1 mm 3 mps 719 mmHg 87%
    04:00 +8°C° 0.1 mm 3 mps 719 mmHg 88%
    05:00 +8°C° 0.3 mm 3 mps 719 mmHg 88%
    06:00 +8°C° 0.3 mm 3 mps 720 mmHg 88%
    07:00 +7°C° 0.3 mm 3 mps 720 mmHg 88%
    08:00 +8°C° 0.2 mm 3 mps 721 mmHg 85%
    09:00 +8°C° 0.2 mm 3 mps 721 mmHg 83%
    10:00 +9°C° 0.2 mm 3 mps 722 mmHg 80%
    11:00 +10°C° 0.1 mm 3 mps 722 mmHg 74%
    12:00 +11°C° 0.1 mm 3 mps 723 mmHg 69%
    13:00 +11°C° 0.1 mm 3 mps 723 mmHg 63%
    14:00 +12°C° 0.1 mm 3 mps 723 mmHg 60%
    15:00 +12°C° 0.1 mm 3 mps 723 mmHg 57%
    16:00 +13°C° 0.1 mm 3 mps 723 mmHg 54%
    17:00 +12°C° 0.3 mm 3 mps 723 mmHg 61%
    18:00 +12°C° 0.3 mm 2 mps 723 mmHg 67%
    19:00 +10°C° 0.3 mm 2 mps 723 mmHg 74%
    20:00 +9°C° 0.1 mm 2 mps 724 mmHg 77%
    21:00 +8°C° 0.1 mm 2 mps 724 mmHg 79%
    22:00 +7°C° 0.1 mm 2 mps 725 mmHg 82%
    23:00 +7°C° 0 mm 2 mps 725 mmHg 84%
    Show more